CDT,Max TemperatureF,Mean TemperatureF,Min TemperatureF,Max Dew PointF,MeanDew PointF,Min DewpointF,Max Humidity, Mean Humidity, Min Humidity, Max Sea Level PressureIn, Mean Sea Level PressureIn, Min Sea Level PressureIn, Max VisibilityMiles, Mean VisibilityMiles, Min VisibilityMiles, Max Wind SpeedMPH, Mean Wind SpeedMPH, Max Gust SpeedMPH,PrecipitationIn, CloudCover, Events, WindDirDegrees
2013-3-1,44,39,34,30,27,25,75,62,49,30.10,30.07,30.03,10,9,7,16,7,21,0.00,7,,302
2013-3-2,40,37,33,29,27,23,82,68,54,30.16,30.11,30.06,10,8,3,16,9,24,T,8,Snow,309
2013-3-3,47,39,30,26,21,13,78,52,25,30.19,30.14,30.11,10,10,5,13,7,22,T,4,,317
2013-3-4,64,47,29,46,30,22,85,56,26,30.18,30.08,29.96,10,9,6,13,6,22,0.00,1,,162
2013-3-5,67,53,38,57,46,27,85,75,65,30.07,29.94,29.77,10,8,0,25,10,45,0.15,6,Fog-Rain-Thunderstorm,250
2013-3-6,46,40,33,28,25,20,70,60,49,30.27,30.22,30.08,10,9,7,20,10,31,0.00,2,,326
2013-3-7,59,45,31,36,29,26,78,54,30,30.34,30.28,30.24,10,8,5,12,4,15,0.00,0,,334
2013-3-8,68,52,35,36,27,18,82,49,16,30.35,30.27,30.22,10,8,4,7,2,10,0.00,0,,29
2013-3-9,71,58,44,37,31,24,54,40,26,30.26,30.18,30.09,10,7,5,16,6,23,0.00,0,,120
2013-3-10,75,64,53,49,44,33,60,49,38,30.10,30.02,29.93,10,8,4,23,11,31,0.00,0,,156
2013-3-11,44,39,34,56,49,38,75,62,49,29.97,29.89,29.85,10,5,1,16,7,21,0.00,7,Rain,279
2013-3-12,60,48,35,36,31,29,82,57,31,30.18,30.08,29.98,10,9,6,15,7,22,0.00,0,,332
2013-3-13,58,47,36,34,26,19,85,55,24,30.37,30.26,30.17,10,10,8,20,8,28,0.00,0,,320
2013-3-14,60,46,32,36,22,13,76,48,19,30.44,30.35,30.27,10,10,8,12,3,17,0.00,0,,343
2013-3-15,75,57,38,42,38,30,85,58,31,30.27,30.14,30.02,10,8,7,16,5,24,0.00,0,,216
2013-3-16,75,61,47,47,43,41,77,54,31,30.06,29.99,29.92,10,9,7,18,6,24,0.00,0,,201
2013-3-17,71,62,52,57,52,49,93,73,53,30.02,29.95,29.88,9,7,4,13,6,22,0.00,1,,182
2013-3-18,78,67,55,63,56,52,93,77,60,29.92,29.86,29.78,10,6,2,37,8,51,0.09,6,Rain-Thunderstorm,186
2013-3-19,67,57,46,54,36,24,80,50,20,30.10,30.05,29.93,10,9,7,15,6,22,0.00,2,Rain,355
2013-3-20,61,52,43,31,22,16,53,37,21,30.17,30.08,29.99,10,10,7,17,7,25,0.00,1,,334
2013-3-21,52,44,35,28,20,11,70,45,20,30.07,30.00,29.95,10,9,5,13,4,21,T,2,Rain,337
2013-3-22,48,44,40,45,39,27,93,73,53,30.05,29.98,29.95,9,6,2,13,5,18,0.09,8,Rain,111
2013-3-23,62,55,47,55,50,43,93,84,74,29.99,29.82,29.63,8,5,0,23,4,33,1.30,8,Fog-Rain-Thunderstorm,94
2013-3-24,61,51,41,55,49,28,96,75,53,29.85,29.64,29.57,10,7,0,22,9,33,0.39,7,Fog-Rain-Thunderstorm,327
2013-3-25,49,42,34,27,23,20,64,50,36,30.19,30.03,29.87,10,10,9,21,11,33,0.00,5,,300
2013-3-26,44,37,30,25,24,22,72,59,45,30.36,30.28,30.18,10,10,8,16,7,23,0.00,5,,315
2013-3-27,57,43,29,37,26,23,82,56,30,30.42,30.35,30.30,10,9,7,13,2,17,0.00,0,,312
2013-3-28,66,51,35,38,32,27,92,58,24,30.38,30.31,30.25,10,8,5,12,1,16,0.00,0,,316
2013-3-29,72,56,40,47,37,32,86,55,24,30.33,30.25,30.16,9,8,6,13,4,17,0.00,2,,194
2013-3-30,72,61,49,59,53,44,93,69,44,30.18,30.08,30.01,8,4,1,10,3,17,0.20,7,Rain,215
2013-3-31,65,61,56,59,57,55,100,89,78,30.03,29.97,29.86,10,4,0,16,3,23,0.31,7,Fog-Rain-Thunderstorm,206